map of JDA home
JDA - Airport
Location
City:  John Day, Oregon, United States
Name:Grant Co. Regional/Ogilvie Field
ICAO:KGCD
IATA:JDA
FAA LID:GCD

Details
Type:Airport (Airfield)
Use:Public/Civil
Latitude:4424'10"N (44.402867)
Longitude:11858'04"W (-118.967882)
Datum:WGS 1984
Elevation:3702 ft (1128 m)
Variation:14.39E (WMM2015 magnetic declination)
-0.12 annual change
Runways:2
Longest:5220 × 60 ft (1591 × 18.5 m), paved

Time
Time Zone:UTC-8 (DST-7)
Local Time:

Weather
METAR:KGCD 090915Z AUTO 08008KT 10SM SCT027 BKN044 OVC050 M02/M04 A3000 RMK AO2 T10181042

Related Locations
Nearby:
Farthest:FTU: 10882 mi / 17512 km
Tolagnaro [Maurillac Airport (Fort Dauphin Airport)], MG

Find:

   beyond  
but within

Other Information
Maps:
NOTAMs:
Links:
Sources:

  
flag of United States
flag of Oregon
  

Sectional Chart

Flight Planning
at skyvector.com

Satellite Image

Google Maps Satellite view

 

Copyright © 2004-2016 Karl L. Swartz. All rights reserved.
The Great Circle Mapper name and logo are trademarks of the Great Circle Mapper.
All other trademarks mentioned herein belong to their respective owners.
Please see credits for attibutions and further copyright information.

  Follow gcmap on Facebook Follow gcmap on Twitter Follow gcmap on Google+ GCmap on LinkedIn

hCard Microformat

Geo Microformat